Find Starlink 3595

NORAD ID: 51894 Int'l Des: 2022-022 Owner: SPXS Country: US Constellation: starlink operational
LEOCIRCULAR

現在のビュー

3D地球を読み込み中...

Starlink 3595について

説明を読み込み中...

次回通過

Passes for default location (London). Set your location on the main map for personalized predictions.

高度履歴

Loading altitude history...

軌道要素

1 51894U 22022AU 26148.95717323 -.00001519 00000-0 -77363-4 0 9991
2 51894 53.2005 358.7728 0001454 72.4635 287.6516 15.08842605235425
Epoch: May 28, 2026 • Age: 30 hours

現在のステータス

高度 540.1 km
速度 7.60 km/s
衛星直下点 25.53°N, 46.36°E
打ち上げ日 Mar 3, 2022
運用期間 4.2 years
タイプ internet

技術仕様

分類 Payload
質量 297.00 kg
乾燥質量 275.00 kg
総質量 297.00 kg
長さ 0.20 m
直径 2.80 m
スパン 9.00 m
形状 Box + pan
製造者 SPXS
バスタイプ Starlink
フェーズステータス In Orbit
所有者/国 SPXS/US

Most Searched